Hourly Data Report for October 14, 2014

All times are specified in Local Standard Time (LST). Add 1 hour to adjust for Daylight Saving Time where and when it is observed.

SAINT JOHN A
NEW BRUNSWICK

45°18'58.000" N
65°53'24.000" W
108.80 m
8104901
71609
YSJ

Download Data

Hourly Data (October 2014)
Hourly Data Report for October 14, 2014
Temp Definition
°C
Dew Point Temp Definition
°C
Rel Hum Definition
%
Wind Dir Definition
10's deg

Wind Spd Definition
km/h
Visibility Definition
km
Stn Press Definition
kPa
Hmdx Definition


Wind Chill Definition


Weather Definition


TIME
00:00 Legend Double Dagger 10.8 9.7 93 22 16 24.1 101.10     LegendNANA
01:00 Legend Double Dagger 10.2 9.8 97 22 8 24.1 101.07     LegendNANA
02:00 Legend Double Dagger 9.7 9.4 98 20 11 24.1 101.06     Mainly Clear
03:00 Legend Double Dagger 9.1 9.1 100 17 5 24.1 101.05     LegendNANA
04:00 Legend Double Dagger 9.0 9.0 100 19 5 24.1 101.07     LegendNANA
05:00 Legend Double Dagger 9.6 9.6 100 19 7 24.1 101.09     Mostly Cloudy
06:00 Legend Double Dagger 11.7 11.7 100 23 13 16.1 101.07     LegendNANA
07:00 Legend Double Dagger 11.9 11.9 100 22 15 4.8 101.07     Fog
08:00 Legend Double Dagger 12.3 12.3 100 23 16 9.7 101.09     Fog
09:00 Legend Double Dagger 12.7 12.4 98 23 21 16.1 101.12     LegendNANA
10:00 Legend Double Dagger 13.3 12.7 96 22 16 16.1 101.11     LegendNANA
11:00 Legend Double Dagger 14.5 12.4 87 20 19 24.1 101.08     Cloudy
12:00 Legend Double Dagger 14.3 12.5 89 20 19 24.1 101.02     LegendNANA
13:00 Legend Double Dagger 14.1 13.0 93 21 22 9.7 100.96     Drizzle,Fog
14:00 Legend Double Dagger 14.1 13.3 95 20 20 12.9 100.92     Cloudy
15:00 Legend Double Dagger 13.8 13.5 98 21 26 3.2 100.87     Drizzle,Fog
16:00 Legend Double Dagger 13.6 13.6 100 20 20 1.6 100.85     Fog
17:00 Legend Double Dagger 13.6 13.6 100 21 21 1.2 100.83     Fog
18:00 Legend Double Dagger 13.6 13.6 100 21 21 1.2 100.79     Fog
19:00 Legend Double Dagger 14.1 14.1 100 21 25 1.2 100.79     Fog
20:00 Legend Double Dagger 13.8 13.8 100 20 26 1.0 100.80     Fog
21:00 Legend Double Dagger 14.3 14.3 100 21 21 1.2 100.79     Fog
22:00 Legend Double Dagger 14.1 14.1 100 21 22 1.6 100.78     Fog
23:00 Legend Double Dagger 14.1 14.1 100 21 24 1.6 100.76     Fog

Notes on Data Quality.

Legend

  • E = Estimated
  • M = Missing
  • NA = Not Available
  • ‡ = Partner data that is not subject to review by the National Climate Archives
Date modified: